{"data":{"norad_id":55955,"epoch":"2026-09-20T08:54:21.828672Z","epoch_age_seconds":117250,"freshness":"FRESH","line1":"1 55955U 23037AT  26263.37108598  .00001281  00000+0  11513-3 0  9999","line2":"2 55955  69.9997 133.6372 0002508 270.9943  89.0928 14.98322634193634","mean_motion":14.98322634,"eccentricity":0.0002508,"inclination_deg":69.9997,"raan_deg":133.6372,"arg_perigee_deg":270.9943,"mean_anomaly_deg":89.0928,"bstar":0.00011513,"rev_number":19363,"period_min":96.107471603476,"perigee_km":570.33555569513,"apogee_km":573.8217838751,"semimajor_km":6950.2156697851,"source":"CELESTRAK","updated_at":"2026-09-21T09:00:33.346632Z"}}